Date;H [cm]
01.01.1963;147
02.01.1963;145
03.01.1963;144
04.01.1963;146
05.01.1963;157
06.01.1963;148
07.01.1963;145
08.01.1963;142
09.01.1963;140
10.01.1963;138
11.01.1963;138
12.01.1963;139
13.01.1963;138
14.01.1963;139
15.01.1963;138
16.01.1963;138
17.01.1963;138
18.01.1963;138
19.01.1963;139
20.01.1963;143
21.01.1963;140
22.01.1963;140
23.01.1963;140
24.01.1963;140
25.01.1963;137
26.01.1963;134
27.01.1963;136
28.01.1963;138
29.01.1963;138
30.01.1963;138
31.01.1963;137
01.02.1963;136
02.02.1963;137
03.02.1963;138
04.02.1963;137
05.02.1963;136
06.02.1963;137
07.02.1963;136
08.02.1963;139
09.02.1963;138
10.02.1963;136
11.02.1963;134
12.02.1963;134
13.02.1963;134
14.02.1963;134
15.02.1963;135
16.02.1963;134
17.02.1963;137
18.02.1963;134
19.02.1963;131
20.02.1963;130
21.02.1963;132
22.02.1963;134
23.02.1963;135
24.02.1963;136
25.02.1963;136
26.02.1963;136
27.02.1963;134
28.02.1963;136
01.03.1963;136
02.03.1963;135
03.03.1963;136
04.03.1963;136
05.03.1963;136
06.03.1963;136
07.03.1963;132
08.03.1963;125
09.03.1963;116
10.03.1963;118
11.03.1963;121
12.03.1963;122
13.03.1963;122
14.03.1963;121
15.03.1963;122
16.03.1963;122
17.03.1963;120
18.03.1963;122
19.03.1963;122
20.03.1963;125
21.03.1963;124
22.03.1963;126
23.03.1963;127
24.03.1963;128
25.03.1963;124
26.03.1963;128
27.03.1963;130
28.03.1963;126
29.03.1963;132
30.03.1963;130
31.03.1963;132
01.04.1963;128
02.04.1963;126
03.04.1963;132
04.04.1963;128
05.04.1963;125
06.04.1963;117
07.04.1963;116
08.04.1963;116
09.04.1963;118
10.04.1963;130
11.04.1963;141
12.04.1963;172
13.04.1963;186
14.04.1963;196
15.04.1963;196
16.04.1963;193
17.04.1963;196
18.04.1963;196
19.04.1963;192
20.04.1963;189
21.04.1963;182
22.04.1963;175
23.04.1963;171
24.04.1963;166
25.04.1963;162
26.04.1963;159
27.04.1963;156
28.04.1963;154
29.04.1963;153
30.04.1963;152
01.05.1963;154
02.05.1963;163
03.05.1963;166
04.05.1963;168
05.05.1963;166
06.05.1963;163
07.05.1963;162
08.05.1963;161
09.05.1963;158
10.05.1963;154
11.05.1963;152
12.05.1963;152
13.05.1963;151
14.05.1963;149
15.05.1963;146
16.05.1963;146
17.05.1963;148
18.05.1963;146
19.05.1963;148
20.05.1963;146
21.05.1963;145
22.05.1963;144
23.05.1963;142
24.05.1963;142
25.05.1963;143
26.05.1963;152
27.05.1963;144
28.05.1963;139
29.05.1963;138
30.05.1963;136
31.05.1963;134
01.06.1963;133
02.06.1963;132
03.06.1963;132
04.06.1963;130
05.06.1963;130
06.06.1963;128
07.06.1963;129
08.06.1963;128
09.06.1963;128
10.06.1963;127
11.06.1963;126
12.06.1963;126
13.06.1963;128
14.06.1963;126
15.06.1963;126
16.06.1963;127
17.06.1963;126
18.06.1963;126
19.06.1963;125
20.06.1963;124
21.06.1963;124
22.06.1963;124
23.06.1963;124
24.06.1963;124
25.06.1963;124
26.06.1963;124
27.06.1963;124
28.06.1963;124
29.06.1963;122
30.06.1963;121
01.07.1963;119
02.07.1963;118
03.07.1963;119
04.07.1963;118
05.07.1963;117
06.07.1963;117
07.07.1963;119
08.07.1963;128
09.07.1963;127
10.07.1963;126
11.07.1963;124
12.07.1963;121
13.07.1963;120
14.07.1963;118
15.07.1963;118
16.07.1963;118
17.07.1963;117
18.07.1963;117
19.07.1963;116
20.07.1963;117
21.07.1963;116
22.07.1963;114
23.07.1963;114
24.07.1963;114
25.07.1963;114
26.07.1963;114
27.07.1963;116
28.07.1963;115
29.07.1963;117
30.07.1963;120
31.07.1963;118
01.08.1963;116
02.08.1963;114
03.08.1963;114
04.08.1963;114
05.08.1963;114
06.08.1963;114
07.08.1963;114
08.08.1963;114
09.08.1963;114
10.08.1963;118
11.08.1963;117
12.08.1963;115
13.08.1963;115
14.08.1963;118
15.08.1963;118
16.08.1963;118
17.08.1963;118
18.08.1963;118
19.08.1963;118
20.08.1963;126
21.08.1963;128
22.08.1963;124
23.08.1963;132
24.08.1963;134
25.08.1963;129
26.08.1963;126
27.08.1963;122
28.08.1963;123
29.08.1963;128
30.08.1963;128
31.08.1963;126
01.09.1963;124
02.09.1963;122
03.09.1963;122
04.09.1963;120
05.09.1963;123
06.09.1963;122
07.09.1963;122
08.09.1963;122
09.09.1963;121
10.09.1963;120
11.09.1963;120
12.09.1963;120
13.09.1963;120
14.09.1963;118
15.09.1963;120
16.09.1963;118
17.09.1963;118
18.09.1963;117
19.09.1963;117
20.09.1963;117
21.09.1963;116
22.09.1963;116
23.09.1963;116
24.09.1963;116
25.09.1963;116
26.09.1963;115
27.09.1963;115
28.09.1963;116
29.09.1963;116
30.09.1963;115
01.10.1963;116
02.10.1963;118
03.10.1963;120
04.10.1963;125
05.10.1963;139
06.10.1963;136
07.10.1963;133
08.10.1963;132
09.10.1963;132
10.10.1963;130
11.10.1963;131
12.10.1963;137
13.10.1963;150
14.10.1963;160
15.10.1963;172
16.10.1963;174
17.10.1963;165
18.10.1963;164
19.10.1963;162
20.10.1963;159
21.10.1963;160
22.10.1963;159
23.10.1963;158
24.10.1963;154
25.10.1963;152
26.10.1963;152
27.10.1963;150
28.10.1963;148
29.10.1963;150
30.10.1963;148
31.10.1963;146
01.11.1963;144
02.11.1963;144
03.11.1963;144
04.11.1963;146
05.11.1963;144
06.11.1963;142
07.11.1963;142
08.11.1963;141
09.11.1963;144
10.11.1963;144
11.11.1963;146
12.11.1963;144
13.11.1963;142
14.11.1963;140
15.11.1963;142
16.11.1963;146
17.11.1963;155
18.11.1963;160
19.11.1963;164
20.11.1963;171
21.11.1963;164
22.11.1963;164
23.11.1963;160
24.11.1963;158
25.11.1963;163
26.11.1963;182
27.11.1963;191
28.11.1963;204
29.11.1963;208
30.11.1963;186
01.12.1963;174
02.12.1963;176
03.12.1963;183
04.12.1963;168
05.12.1963;166
06.12.1963;162
07.12.1963;159
08.12.1963;158
09.12.1963;157
10.12.1963;146
11.12.1963;141
12.12.1963;142
13.12.1963;143
14.12.1963;142
15.12.1963;151
16.12.1963;148
17.12.1963;148
18.12.1963;148
19.12.1963;146
20.12.1963;144
21.12.1963;146
22.12.1963;148
23.12.1963;146
24.12.1963;143
25.12.1963;144
26.12.1963;144
27.12.1963;146
28.12.1963;145
29.12.1963;144
30.12.1963;142
31.12.1963;140
01.01.1964;139
02.01.1964;142
03.01.1964;144
04.01.1964;144
05.01.1964;142
06.01.1964;137
07.01.1964;135
08.01.1964;136
09.01.1964;135
10.01.1964;134
11.01.1964;134
12.01.1964;132
13.01.1964;132
14.01.1964;134
15.01.1964;134
16.01.1964;146
17.01.1964;140
18.01.1964;136
19.01.1964;134
20.01.1964;132
21.01.1964;132
22.01.1964;131
23.01.1964;132
24.01.1964;132
25.01.1964;131
26.01.1964;130
27.01.1964;132
28.01.1964;130
29.01.1964;130
30.01.1964;130
31.01.1964;130
01.02.1964;130
02.02.1964;130
03.02.1964;129
04.02.1964;129
05.02.1964;129
06.02.1964;126
07.02.1964;125
08.02.1964;118
09.02.1964;119
10.02.1964;130
11.02.1964;128
12.02.1964;124
13.02.1964;124
14.02.1964;128
15.02.1964;126
16.02.1964;126
17.02.1964;130
18.02.1964;128
19.02.1964;128
20.02.1964;128
21.02.1964;128
22.02.1964;130
23.02.1964;131
24.02.1964;130
25.02.1964;130
26.02.1964;129
27.02.1964;130
28.02.1964;130
29.02.1964;130
01.03.1964;130
02.03.1964;130
03.03.1964;130
04.03.1964;130
05.03.1964;126
06.03.1964;126
07.03.1964;130
08.03.1964;130
09.03.1964;132
10.03.1964;132
11.03.1964;131
12.03.1964;132
13.03.1964;125
14.03.1964;130
15.03.1964;132
16.03.1964;132
17.03.1964;130
18.03.1964;130
19.03.1964;132
20.03.1964;133
21.03.1964;127
22.03.1964;137
23.03.1964;138
24.03.1964;138
25.03.1964;137
26.03.1964;138
27.03.1964;138
28.03.1964;135
29.03.1964;134
30.03.1964;130
31.03.1964;135
01.04.1964;119
02.04.1964;116
03.04.1964;123
04.04.1964;124
05.04.1964;131
06.04.1964;132
07.04.1964;130
08.04.1964;128
09.04.1964;127
10.04.1964;126
11.04.1964;128
12.04.1964;136
13.04.1964;147
14.04.1964;171
15.04.1964;176
16.04.1964;179
17.04.1964;179
18.04.1964;180
19.04.1964;182
20.04.1964;179
21.04.1964;174
22.04.1964;172
23.04.1964;168
24.04.1964;162
25.04.1964;160
26.04.1964;156
27.04.1964;154
28.04.1964;154
29.04.1964;154
30.04.1964;153
01.05.1964;154
02.05.1964;152
03.05.1964;152
04.05.1964;152
05.05.1964;150
06.05.1964;150
07.05.1964;151
08.05.1964;151
09.05.1964;152
10.05.1964;152
11.05.1964;149
12.05.1964;154
13.05.1964;158
14.05.1964;160
15.05.1964;169
16.05.1964;166
17.05.1964;164
18.05.1964;160
19.05.1964;154
20.05.1964;151
21.05.1964;148
22.05.1964;146
23.05.1964;145
24.05.1964;144
25.05.1964;142
26.05.1964;142
27.05.1964;142
28.05.1964;140
29.05.1964;139
30.05.1964;138
31.05.1964;137
01.06.1964;136
02.06.1964;135
03.06.1964;134
04.06.1964;134
05.06.1964;134
06.06.1964;133
07.06.1964;132
08.06.1964;131
09.06.1964;130
10.06.1964;129
11.06.1964;129
12.06.1964;127
13.06.1964;127
14.06.1964;126
15.06.1964;125
16.06.1964;125
17.06.1964;124
18.06.1964;124
19.06.1964;122
20.06.1964;122
21.06.1964;124
22.06.1964;122
23.06.1964;121
24.06.1964;122
25.06.1964;121
26.06.1964;120
27.06.1964;121
28.06.1964;118
29.06.1964;120
30.06.1964;120
01.07.1964;117
02.07.1964;116
03.07.1964;116
04.07.1964;116
05.07.1964;118
06.07.1964;118
07.07.1964;120
08.07.1964;118
09.07.1964;120
10.07.1964;117
11.07.1964;118
12.07.1964;120
13.07.1964;118
14.07.1964;118
15.07.1964;116
16.07.1964;115
17.07.1964;115
18.07.1964;114
19.07.1964;114
20.07.1964;113
21.07.1964;114
22.07.1964;118
23.07.1964;117
24.07.1964;113
25.07.1964;112
26.07.1964;114
27.07.1964;114
28.07.1964;114
29.07.1964;111
30.07.1964;114
31.07.1964;112
01.08.1964;112
02.08.1964;112
03.08.1964;113
04.08.1964;114
05.08.1964;118
06.08.1964;118
07.08.1964;114
08.08.1964;113
09.08.1964;114
10.08.1964;112
11.08.1964;113
12.08.1964;114
13.08.1964;114
14.08.1964;113
15.08.1964;112
16.08.1964;112
17.08.1964;112
18.08.1964;112
19.08.1964;110
20.08.1964;110
21.08.1964;110
22.08.1964;111
23.08.1964;111
24.08.1964;110
25.08.1964;110
26.08.1964;110
27.08.1964;110
28.08.1964;110
29.08.1964;110
30.08.1964;108
31.08.1964;108
01.09.1964;110
02.09.1964;108
03.09.1964;108
04.09.1964;108
05.09.1964;108
06.09.1964;108
07.09.1964;106
08.09.1964;108
09.09.1964;110
10.09.1964;110
11.09.1964;112
12.09.1964;109
13.09.1964;109
14.09.1964;108
15.09.1964;109
16.09.1964;109
17.09.1964;110
18.09.1964;109
19.09.1964;110
20.09.1964;110
21.09.1964;109
22.09.1964;109
23.09.1964;108
24.09.1964;108
25.09.1964;108
26.09.1964;109
27.09.1964;107
28.09.1964;107
29.09.1964;110
30.09.1964;111
01.10.1964;112
02.10.1964;112
03.10.1964;111
04.10.1964;110
05.10.1964;109
06.10.1964;110
07.10.1964;109
08.10.1964;108
09.10.1964;108
10.10.1964;108
11.10.1964;108
12.10.1964;110
13.10.1964;110
14.10.1964;111
15.10.1964;112
16.10.1964;112
17.10.1964;112
18.10.1964;112
19.10.1964;111
20.10.1964;111
21.10.1964;112
22.10.1964;114
23.10.1964;114
24.10.1964;113
25.10.1964;115
26.10.1964;120
27.10.1964;118
28.10.1964;116
29.10.1964;116
30.10.1964;116
31.10.1964;115
01.11.1964;115
02.11.1964;114
03.11.1964;114
04.11.1964;114
05.11.1964;114
06.11.1964;113
07.11.1964;111
08.11.1964;112
09.11.1964;120
10.11.1964;115
11.11.1964;116
12.11.1964;111
13.11.1964;114
14.11.1964;115
15.11.1964;116
16.11.1964;120
17.11.1964;120
18.11.1964;122
19.11.1964;126
20.11.1964;130
21.11.1964;126
22.11.1964;119
23.11.1964;128
24.11.1964;135
25.11.1964;134
26.11.1964;130
27.11.1964;126
28.11.1964;125
29.11.1964;128
30.11.1964;124
01.12.1964;122
02.12.1964;124
03.12.1964;126
04.12.1964;124
05.12.1964;128
06.12.1964;128
07.12.1964;132
08.12.1964;132
09.12.1964;131
10.12.1964;138
11.12.1964;150
12.12.1964;154
13.12.1964;151
14.12.1964;151
15.12.1964;157
16.12.1964;152
17.12.1964;150
18.12.1964;149
19.12.1964;148
20.12.1964;148
21.12.1964;146
22.12.1964;146
23.12.1964;148
24.12.1964;146
25.12.1964;144
26.12.1964;140
27.12.1964;142
28.12.1964;148
29.12.1964;140
30.12.1964;138
31.12.1964;138
01.01.1965;141
02.01.1965;142
03.01.1965;144
04.01.1965;143
05.01.1965;140
06.01.1965;144
07.01.1965;134
08.01.1965;131
09.01.1965;134
10.01.1965;134
11.01.1965;143
12.01.1965;140
13.01.1965;138
14.01.1965;138
15.01.1965;138
16.01.1965;136
17.01.1965;135
18.01.1965;136
19.01.1965;135
20.01.1965;134
21.01.1965;121
22.01.1965;128
23.01.1965;132
24.01.1965;134
25.01.1965;132
26.01.1965;130
27.01.1965;126
28.01.1965;124
29.01.1965;129
30.01.1965;130
31.01.1965;130
01.02.1965;130
02.02.1965;130
03.02.1965;128
04.02.1965;128
05.02.1965;128
06.02.1965;128
07.02.1965;128
08.02.1965;130
09.02.1965;123
10.02.1965;130
11.02.1965;130
12.02.1965;131
13.02.1965;130
14.02.1965;131
15.02.1965;130
16.02.1965;132
17.02.1965;130
18.02.1965;131
19.02.1965;130
20.02.1965;128
21.02.1965;129
22.02.1965;128
23.02.1965;128
24.02.1965;128
25.02.1965;128
26.02.1965;128
27.02.1965;130
28.02.1965;131
01.03.1965;130
02.03.1965;132
03.03.1965;128
04.03.1965;127
05.03.1965;128
06.03.1965;134
07.03.1965;133
08.03.1965;132
09.03.1965;134
10.03.1965;134
11.03.1965;132
12.03.1965;134
13.03.1965;133
14.03.1965;134
15.03.1965;134
16.03.1965;135
17.03.1965;136
18.03.1965;136
19.03.1965;137
20.03.1965;138
21.03.1965;138
22.03.1965;137
23.03.1965;132
24.03.1965;128
25.03.1965;128
26.03.1965;127
27.03.1965;125
28.03.1965;126
29.03.1965;124
30.03.1965;131
31.03.1965;133
01.04.1965;135
02.04.1965;130
03.04.1965;138
04.04.1965;132
05.04.1965;132
06.04.1965;137
07.04.1965;148
08.04.1965;152
09.04.1965;154
10.04.1965;154
11.04.1965;154
12.04.1965;160
13.04.1965;168
14.04.1965;178
15.04.1965;190
16.04.1965;194
17.04.1965;204
18.04.1965;214
19.04.1965;221
20.04.1965;222
21.04.1965;217
22.04.1965;210
23.04.1965;204
24.04.1965;198
25.04.1965;193
26.04.1965;189
27.04.1965;186
28.04.1965;182
29.04.1965;177
30.04.1965;174
01.05.1965;176
02.05.1965;172
03.05.1965;170
04.05.1965;167
05.05.1965;164
06.05.1965;164
07.05.1965;160
08.05.1965;159
09.05.1965;159
10.05.1965;158
11.05.1965;156
12.05.1965;154
13.05.1965;152
14.05.1965;151
15.05.1965;148
16.05.1965;145
17.05.1965;144
18.05.1965;146
19.05.1965;151
20.05.1965;148
21.05.1965;148
22.05.1965;148
23.05.1965;146
24.05.1965;144
25.05.1965;142
26.05.1965;141
27.05.1965;140
28.05.1965;140
29.05.1965;137
30.05.1965;136
31.05.1965;136
01.06.1965;136
02.06.1965;136
03.06.1965;135
04.06.1965;134
05.06.1965;134
06.06.1965;132
07.06.1965;132
08.06.1965;132
09.06.1965;130
10.06.1965;129
11.06.1965;128
12.06.1965;127
13.06.1965;128
14.06.1965;126
15.06.1965;125
16.06.1965;127
17.06.1965;126
18.06.1965;125
19.06.1965;125
20.06.1965;128
21.06.1965;128
22.06.1965;126
23.06.1965;126
24.06.1965;150
25.06.1965;148
26.06.1965;141
27.06.1965;136
28.06.1965;134
29.06.1965;132
30.06.1965;131
01.07.1965;134
02.07.1965;136
03.07.1965;137
04.07.1965;140
05.07.1965;140
06.07.1965;142
07.07.1965;144
08.07.1965;142
09.07.1965;142
10.07.1965;146
11.07.1965;150
12.07.1965;146
13.07.1965;142
14.07.1965;141
15.07.1965;142
16.07.1965;158
17.07.1965;154
18.07.1965;148
19.07.1965;145
20.07.1965;143
21.07.1965;143
22.07.1965;141
23.07.1965;143
24.07.1965;144
25.07.1965;146
26.07.1965;146
27.07.1965;146
28.07.1965;144
29.07.1965;144
30.07.1965;144
31.07.1965;148
01.08.1965;147
02.08.1965;144
03.08.1965;146
04.08.1965;154
05.08.1965;165
06.08.1965;162
07.08.1965;158
08.08.1965;152
09.08.1965;149
10.08.1965;149
11.08.1965;151
12.08.1965;150
13.08.1965;153
14.08.1965;160
15.08.1965;158
16.08.1965;156
17.08.1965;154
18.08.1965;151
19.08.1965;148
20.08.1965;147
21.08.1965;145
22.08.1965;144
23.08.1965;145
24.08.1965;144
25.08.1965;142
26.08.1965;140
27.08.1965;140
28.08.1965;138
29.08.1965;138
30.08.1965;139
31.08.1965;138
01.09.1965;140
02.09.1965;142
03.09.1965;140
04.09.1965;138
05.09.1965;138
06.09.1965;136
07.09.1965;136
08.09.1965;136
09.09.1965;135
10.09.1965;134
11.09.1965;134
12.09.1965;136
13.09.1965;136
14.09.1965;137
15.09.1965;136
16.09.1965;136
17.09.1965;134
18.09.1965;134
19.09.1965;131
20.09.1965;131
21.09.1965;131
22.09.1965;130
23.09.1965;134
24.09.1965;134
25.09.1965;134
26.09.1965;131
27.09.1965;130
28.09.1965;129
29.09.1965;130
30.09.1965;130
01.10.1965;129
02.10.1965;129
03.10.1965;128
04.10.1965;128
05.10.1965;128
06.10.1965;126
07.10.1965;128
08.10.1965;130
09.10.1965;133
10.10.1965;134
11.10.1965;134
12.10.1965;134
13.10.1965;134
14.10.1965;132
15.10.1965;132
16.10.1965;131
17.10.1965;130
18.10.1965;130
19.10.1965;130
20.10.1965;132
21.10.1965;132
22.10.1965;134
23.10.1965;134
24.10.1965;132
25.10.1965;132
26.10.1965;132
27.10.1965;131
28.10.1965;132
29.10.1965;134
30.10.1965;134
31.10.1965;136
01.11.1965;138
02.11.1965;140
03.11.1965;147
04.11.1965;151
05.11.1965;150
06.11.1965;148
07.11.1965;148
08.11.1965;148
09.11.1965;145
10.11.1965;146
11.11.1965;146
12.11.1965;142
13.11.1965;173
14.11.1965;170
15.11.1965;168
16.11.1965;158
17.11.1965;153
18.11.1965;148
19.11.1965;150
20.11.1965;146
21.11.1965;145
22.11.1965;144
23.11.1965;148
24.11.1965;153
25.11.1965;153
26.11.1965;150
27.11.1965;147
28.11.1965;146
29.11.1965;146
30.11.1965;148
01.12.1965;149
02.12.1965;150
03.12.1965;150
04.12.1965;149
05.12.1965;147
06.12.1965;146
07.12.1965;148
08.12.1965;147
09.12.1965;147
10.12.1965;146
11.12.1965;146
12.12.1965;147
13.12.1965;144
14.12.1965;143
15.12.1965;144
16.12.1965;142
17.12.1965;152
18.12.1965;151
19.12.1965;149
20.12.1965;151
21.12.1965;152
22.12.1965;151
23.12.1965;148
24.12.1965;144
25.12.1965;140
26.12.1965;144
27.12.1965;143
28.12.1965;142
29.12.1965;143
30.12.1965;142
31.12.1965;141
01.01.1966;141
02.01.1966;140
03.01.1966;144
04.01.1966;145
05.01.1966;144
06.01.1966;144
07.01.1966;142
08.01.1966;143
09.01.1966;142
10.01.1966;142
11.01.1966;140
12.01.1966;140
13.01.1966;139
14.01.1966;140
15.01.1966;140
16.01.1966;139
17.01.1966;139
18.01.1966;141
19.01.1966;141
20.01.1966;140
21.01.1966;140
22.01.1966;139
23.01.1966;140
24.01.1966;140
25.01.1966;142
26.01.1966;142
27.01.1966;143
28.01.1966;143
29.01.1966;142
30.01.1966;143
31.01.1966;142
01.02.1966;146
02.02.1966;142
03.02.1966;143
04.02.1966;141
05.02.1966;140
06.02.1966;142
07.02.1966;140
08.02.1966;142
09.02.1966;141
10.02.1966;143
11.02.1966;142
12.02.1966;143
13.02.1966;142
14.02.1966;142
15.02.1966;143
16.02.1966;143
17.02.1966;146
18.02.1966;146
19.02.1966;146
20.02.1966;146
21.02.1966;144
22.02.1966;148
23.02.1966;146
24.02.1966;144
25.02.1966;146
26.02.1966;148
27.02.1966;148
28.02.1966;146
01.03.1966;146
02.03.1966;145
03.03.1966;142
04.03.1966;141
05.03.1966;138
06.03.1966;133
07.03.1966;126
08.03.1966;125
09.03.1966;126
10.03.1966;124
11.03.1966;124
12.03.1966;125
13.03.1966;133
14.03.1966;142
15.03.1966;138
16.03.1966;135
17.03.1966;132
18.03.1966;130
19.03.1966;148
20.03.1966;130
21.03.1966;126
22.03.1966;128
23.03.1966;128
24.03.1966;127
25.03.1966;130
26.03.1966;130
27.03.1966;130
28.03.1966;130
29.03.1966;130
30.03.1966;135
31.03.1966;139
01.04.1966;142
02.04.1966;146
03.04.1966;154
04.04.1966;172
05.04.1966;188
06.04.1966;202
07.04.1966;228
08.04.1966;236
09.04.1966;240
10.04.1966;246
11.04.1966;246
12.04.1966;238
13.04.1966;220
14.04.1966;209
15.04.1966;212
16.04.1966;204
17.04.1966;196
18.04.1966;193
19.04.1966;190
20.04.1966;186
21.04.1966;186
22.04.1966;194
23.04.1966;206
24.04.1966;218
25.04.1966;224
26.04.1966;257
27.04.1966;294
28.04.1966;312
29.04.1966;322
30.04.1966;326
01.05.1966;329
02.05.1966;332
03.05.1966;334
04.05.1966;328
05.05.1966;320
06.05.1966;312
07.05.1966;300
08.05.1966;286
09.05.1966;279
10.05.1966;272
11.05.1966;264
12.05.1966;258
13.05.1966;252
14.05.1966;248
15.05.1966;235
16.05.1966;230
17.05.1966;223
18.05.1966;216
19.05.1966;214
20.05.1966;210
21.05.1966;208
22.05.1966;205
23.05.1966;202
24.05.1966;198
25.05.1966;193
26.05.1966;192
27.05.1966;189
28.05.1966;196
29.05.1966;192
30.05.1966;188
31.05.1966;186
01.06.1966;183
02.06.1966;180
03.06.1966;178
04.06.1966;178
05.06.1966;178
06.06.1966;175
07.06.1966;171
08.06.1966;170
09.06.1966;168
10.06.1966;166
11.06.1966;162
12.06.1966;160
13.06.1966;158
14.06.1966;156
15.06.1966;156
16.06.1966;156
17.06.1966;154
18.06.1966;152
19.06.1966;151
20.06.1966;151
21.06.1966;150
22.06.1966;150
23.06.1966;151
24.06.1966;149
25.06.1966;148
26.06.1966;147
27.06.1966;153
28.06.1966;152
29.06.1966;161
30.06.1966;166
01.07.1966;159
02.07.1966;153
03.07.1966;150
04.07.1966;150
05.07.1966;149
06.07.1966;148
07.07.1966;152
08.07.1966;148
09.07.1966;148
10.07.1966;150
11.07.1966;150
12.07.1966;148
13.07.1966;146
14.07.1966;145
15.07.1966;146
16.07.1966;148
17.07.1966;146
18.07.1966;146
19.07.1966;144
20.07.1966;143
21.07.1966;143
22.07.1966;142
23.07.1966;145
24.07.1966;153
25.07.1966;149
26.07.1966;144
27.07.1966;144
28.07.1966;154
29.07.1966;156
30.07.1966;150
31.07.1966;148
01.08.1966;146
02.08.1966;144
03.08.1966;143
04.08.1966;142
05.08.1966;142
06.08.1966;143
07.08.1966;144
08.08.1966;150
09.08.1966;148
10.08.1966;145
11.08.1966;151
12.08.1966;149
13.08.1966;147
14.08.1966;146
15.08.1966;147
16.08.1966;147
17.08.1966;144
18.08.1966;142
19.08.1966;140
20.08.1966;141
21.08.1966;142
22.08.1966;140
23.08.1966;139
24.08.1966;138
25.08.1966;137
26.08.1966;136
27.08.1966;134
28.08.1966;134
29.08.1966;134
30.08.1966;134
31.08.1966;135
01.09.1966;133
02.09.1966;132
03.09.1966;133
04.09.1966;134
05.09.1966;135
06.09.1966;135
07.09.1966;135
08.09.1966;138
09.09.1966;138
10.09.1966;136
11.09.1966;134
12.09.1966;134
13.09.1966;136
14.09.1966;136
15.09.1966;140
16.09.1966;142
17.09.1966;142
18.09.1966;138
19.09.1966;138
20.09.1966;138
21.09.1966;136
22.09.1966;136
23.09.1966;138
24.09.1966;140
25.09.1966;143
26.09.1966;143
27.09.1966;144
28.09.1966;146
29.09.1966;146
30.09.1966;146
01.10.1966;145
02.10.1966;144
03.10.1966;144
04.10.1966;150
05.10.1966;162
06.10.1966;171
07.10.1966;166
08.10.1966;161
09.10.1966;158
10.10.1966;155
11.10.1966;152
12.10.1966;152
13.10.1966;154
14.10.1966;157
15.10.1966;154
16.10.1966;154
17.10.1966;150
18.10.1966;150
19.10.1966;148
20.10.1966;149
21.10.1966;150
22.10.1966;149
23.10.1966;152
24.10.1966;176
25.10.1966;210
26.10.1966;198
27.10.1966;188
28.10.1966;180
29.10.1966;175
30.10.1966;172
31.10.1966;168
01.11.1966;156
02.11.1966;162
03.11.1966;162
04.11.1966;158
05.11.1966;156
06.11.1966;156
07.11.1966;156
08.11.1966;154
09.11.1966;154
10.11.1966;153
11.11.1966;153
12.11.1966;150
13.11.1966;148
14.11.1966;146
15.11.1966;146
16.11.1966;146
17.11.1966;145
18.11.1966;144
19.11.1966;144
20.11.1966;144
21.11.1966;146
22.11.1966;152
23.11.1966;156
24.11.1966;153
25.11.1966;153
26.11.1966;156
27.11.1966;158
28.11.1966;158
29.11.1966;160
30.11.1966;158
01.12.1966;155
02.12.1966;155
03.12.1966;153
04.12.1966;153
05.12.1966;152
06.12.1966;150
07.12.1966;144
08.12.1966;169
09.12.1966;193
10.12.1966;209
11.12.1966;213
12.12.1966;221
13.12.1966;201
14.12.1966;164
15.12.1966;154
16.12.1966;155
17.12.1966;158
18.12.1966;157
19.12.1966;150
20.12.1966;155
21.12.1966;155
22.12.1966;150
23.12.1966;151
24.12.1966;150
25.12.1966;150
26.12.1966;148
27.12.1966;149
28.12.1966;148
29.12.1966;145
30.12.1966;144
31.12.1966;144
01.01.1967;144
02.01.1967;141
03.01.1967;138
04.01.1967;137
05.01.1967;132
06.01.1967;134
07.01.1967;135
08.01.1967;134
09.01.1967;134
10.01.1967;128
11.01.1967;134
12.01.1967;138
13.01.1967;136
14.01.1967;134
15.01.1967;136
16.01.1967;134
17.01.1967;136
18.01.1967;137
19.01.1967;136
20.01.1967;136
21.01.1967;136
22.01.1967;136
23.01.1967;134
24.01.1967;135
25.01.1967;135
26.01.1967;136
27.01.1967;136
28.01.1967;136
29.01.1967;136
30.01.1967;137
31.01.1967;137
01.02.1967;136
02.02.1967;136
03.02.1967;136
04.02.1967;137
05.02.1967;140
06.02.1967;144
07.02.1967;144